RYR13 GCLP-GVAC

Flight info

Callsign RYR13
Flight time 1h 58m
Altitude 34000
Route ODEGI N873 UDATI/N0444F360 N873 IPERA DCT DIMKI DIMKI1S
Aircraft B738/M-SDE2E3FGHIRWXY/LB1

Departure

Time 2026-04-27 19:07
Airport Gran Canaria Airport (GCLP)

Arrival

Time 2026-04-27 21:06
Airport Amílcar Cabral International Airport (GVAC)
Time Latitude Longitude Altitude Speed Heading
2026-04-27 18:55 27.93616 -15.38748 101 ft 0 kts 291°
2026-04-27 19:02 27.93614 -15.38743 100 ft 0 kts 291°
2026-04-27 19:03 27.93612 -15.38738 100 ft 0 kts 291°
2026-04-27 19:03 27.93610 -15.38731 99 ft 0 kts 291°
2026-04-27 19:03 27.93607 -15.38724 99 ft 0 kts 291°
2026-04-27 19:03 27.93606 -15.38719 98 ft 1 kts 291°
2026-04-27 19:04 27.93605 -15.38717 98 ft 1 kts 291°
2026-04-27 19:04 27.93614 -15.38742 100 ft 5 kts 291°
2026-04-27 19:04 27.93613 -15.38790 103 ft 8 kts 259°
2026-04-27 19:04 27.93599 -15.38871 107 ft 12 kts 259°
2026-04-27 19:05 27.93582 -15.38986 113 ft 17 kts 261°
2026-04-27 19:05 27.93562 -15.39144 119 ft 23 kts 263°
2026-04-27 19:05 27.93487 -15.39245 122 ft 19 kts 157°
2026-04-27 19:05 27.93350 -15.39160 114 ft 25 kts 149°
2026-04-27 19:06 27.93175 -15.39038 103 ft 31 kts 160°
2026-04-27 19:06 27.92053 -15.39270 110 ft 17 kts 220°
2026-04-27 19:06 27.91955 -15.39278 110 ft 14 kts 148°
2026-04-27 19:06 27.91966 -15.39199 104 ft 15 kts 23°
2026-04-27 19:07 27.92248 -15.39083 96 ft 81 kts 21°
2026-04-27 19:07 27.93012 -15.38761 77 ft 149 kts 19°
2026-04-27 19:07 27.94059 -15.38262 561 ft 167 kts 20°
2026-04-27 19:07 27.95176 -15.37742 1066 ft 182 kts 20°
2026-04-27 19:08 27.96380 -15.37216 1741 ft 183 kts 18°
2026-04-27 19:08 27.97520 -15.36760 2601 ft 173 kts 19°
2026-04-27 19:08 27.98659 -15.36275 3254 ft 178 kts 20°
2026-04-27 19:08 27.99862 -15.35759 3724 ft 197 kts 20°
2026-04-27 19:09 28.01170 -15.35136 4249 ft 215 kts 28°
2026-04-27 19:09 28.02352 -15.33952 4689 ft 240 kts 55°
2026-04-27 19:09 28.02874 -15.32078 5140 ft 265 kts 89°
2026-04-27 19:09 28.02388 -15.30054 5969 ft 274 kts 115°
2026-04-27 19:10 28.01520 -15.28121 6734 ft 281 kts 114°
2026-04-27 19:10 28.00733 -15.26089 7575 ft 283 kts 110°
2026-04-27 19:10 27.99982 -15.24041 8411 ft 286 kts 111°
2026-04-27 19:10 27.99452 -15.22661 8928 ft 289 kts 112°
2026-04-27 19:11 27.98318 -15.19897 9951 ft 295 kts 114°
2026-04-27 19:11 27.97435 -15.17754 10442 ft 310 kts 114°
2026-04-27 19:11 27.96508 -15.15474 10887 ft 325 kts 114°
2026-04-27 19:11 27.95560 -15.13147 11563 ft 331 kts 114°
2026-04-27 19:12 27.94580 -15.10751 12238 ft 337 kts 114°
2026-04-27 19:12 27.93596 -15.08343 12950 ft 340 kts 114°
2026-04-27 19:12 27.92609 -15.05920 13638 ft 344 kts 114°
2026-04-27 19:12 27.91592 -15.03426 14304 ft 348 kts 114°
2026-04-27 19:13 27.90421 -15.01052 14893 ft 355 kts 129°
2026-04-27 19:13 27.88527 -14.99301 15540 ft 355 kts 156°
2026-04-27 19:13 27.86120 -14.98643 16146 ft 355 kts 182°
2026-04-27 19:13 27.83748 -14.99231 16698 ft 353 kts 209°
2026-04-27 19:14 27.81876 -15.00916 17280 ft 348 kts 235°
2026-04-27 19:14 27.80782 -15.03360 17917 ft 344 kts 253°
2026-04-27 19:14 27.79909 -15.05875 18391 ft 353 kts 243°
2026-04-27 19:14 27.78403 -15.08111 18997 ft 358 kts 227°
2026-04-27 19:15 27.76586 -15.10025 19560 ft 361 kts 227°
2026-04-27 19:15 27.74873 -15.12091 20069 ft 362 kts 234°
2026-04-27 19:15 27.73394 -15.14358 20617 ft 362 kts 239°
2026-04-27 19:15 27.71964 -15.16710 21141 ft 364 kts 239°
2026-04-27 19:16 27.70595 -15.19138 21640 ft 365 kts 244°
2026-04-27 19:16 27.70190 -15.19957 21798 ft 365 kts 246°
2026-04-27 19:16 27.68430 -15.24298 22619 ft 367 kts 250°
2026-04-27 19:16 27.67472 -15.26965 23066 ft 368 kts 253°
2026-04-27 19:17 27.66703 -15.29710 23539 ft 367 kts 259°
2026-04-27 19:17 27.66126 -15.32518 23985 ft 368 kts 261°
2026-04-27 19:17 27.65612 -15.35382 24422 ft 369 kts 263°
2026-04-27 19:17 27.65269 -15.38209 24866 ft 368 kts 268°
2026-04-27 19:18 27.65149 -15.41118 25260 ft 369 kts 272°
2026-04-27 19:18 27.65118 -15.44020 25686 ft 369 kts 273°
2026-04-27 19:18 27.65211 -15.46904 26059 ft 370 kts 278°
2026-04-27 19:18 27.65525 -15.49799 26470 ft 370 kts 280°
2026-04-27 19:19 27.65790 -15.52694 26852 ft 371 kts 277°
2026-04-27 19:19 27.65976 -15.55615 27224 ft 373 kts 277°
2026-04-27 19:19 27.66177 -15.58534 27599 ft 373 kts 278°
2026-04-27 19:19 27.66399 -15.61456 27931 ft 374 kts 278°
2026-04-27 19:20 27.66619 -15.64373 28263 ft 376 kts 277°
2026-04-27 19:20 27.66591 -15.67379 28578 ft 382 kts 266°
2026-04-27 19:20 27.65956 -15.70310 28909 ft 390 kts 254°
2026-04-27 19:20 27.64728 -15.73092 29247 ft 399 kts 243°
2026-04-27 19:21 27.62946 -15.75537 29535 ft 412 kts 229°
2026-04-27 19:21 27.60586 -15.77503 29827 ft 423 kts 219°
2026-04-27 19:21 27.58098 -15.79233 30102 ft 425 kts 219°
2026-04-27 19:21 27.55584 -15.81054 30332 ft 426 kts 220°
2026-04-27 19:22 27.53097 -15.82903 30622 ft 427 kts 220°
2026-04-27 19:22 27.50624 -15.84725 30886 ft 429 kts 220°
2026-04-27 19:22 27.48127 -15.86544 31157 ft 430 kts 220°
2026-04-27 19:22 27.45605 -15.88382 31393 ft 431 kts 220°
2026-04-27 19:23 27.43076 -15.90229 31658 ft 432 kts 220°
2026-04-27 19:23 27.40549 -15.92072 31906 ft 433 kts 220°
2026-04-27 19:23 27.38015 -15.93918 32194 ft 432 kts 220°
2026-04-27 19:23 27.35491 -15.95749 32589 ft 429 kts 220°
2026-04-27 19:24 27.32983 -15.97568 32923 ft 427 kts 220°
2026-04-27 19:24 27.30482 -15.99381 33225 ft 426 kts 220°
2026-04-27 19:24 27.28006 -16.01178 33538 ft 424 kts 220°
2026-04-27 19:24 27.25540 -16.02967 33841 ft 423 kts 220°
2026-04-27 19:25 27.23043 -16.04778 33994 ft 425 kts 220°
2026-04-27 19:25 27.18076 -16.08373 34000 ft 422 kts 220°
2026-04-27 19:26 27.13176 -16.11909 34000 ft 419 kts 220°
2026-04-27 19:26 27.08233 -16.15484 34000 ft 418 kts 220°
2026-04-27 19:27 27.03363 -16.19000 34000 ft 420 kts 220°
2026-04-27 19:27 26.98413 -16.22568 33999 ft 420 kts 220°
2026-04-27 19:28 26.93517 -16.26090 33999 ft 418 kts 220°
2026-04-27 19:28 26.88632 -16.29603 34000 ft 417 kts 220°
2026-04-27 19:29 26.83748 -16.33104 33999 ft 417 kts 220°
2026-04-27 19:29 26.78869 -16.36597 34000 ft 416 kts 220°
2026-04-27 19:30 26.73982 -16.40095 34000 ft 416 kts 220°
2026-04-27 19:30 26.69036 -16.43636 34000 ft 425 kts 220°
2026-04-27 19:31 26.64026 -16.47215 34000 ft 434 kts 220°
2026-04-27 19:31 26.58870 -16.50893 33999 ft 441 kts 220°
2026-04-27 19:32 26.53677 -16.54589 33999 ft 441 kts 220°
2026-04-27 19:32 26.48531 -16.58248 33999 ft 439 kts 220°
2026-04-27 19:33 26.43356 -16.61927 34000 ft 439 kts 220°
2026-04-27 19:33 26.38189 -16.65597 34000 ft 440 kts 219°
2026-04-27 19:34 26.33023 -16.69262 33999 ft 441 kts 219°
2026-04-27 19:34 26.27855 -16.72923 33999 ft 440 kts 219°
2026-04-27 19:35 26.22675 -16.76590 33999 ft 440 kts 219°
2026-04-27 19:35 26.17494 -16.80255 33999 ft 439 kts 219°
2026-04-27 19:36 26.12337 -16.83910 34000 ft 439 kts 219°
2026-04-27 19:36 26.07180 -16.87563 34000 ft 439 kts 219°
2026-04-27 19:37 26.02024 -16.91207 34000 ft 439 kts 219°
2026-04-27 19:37 25.96901 -16.94827 33998 ft 437 kts 219°
2026-04-27 19:38 25.91749 -16.98463 34000 ft 435 kts 219°
2026-04-27 19:38 25.86607 -17.02086 34000 ft 436 kts 219°
2026-04-27 19:39 25.81499 -17.05681 33999 ft 437 kts 219°
2026-04-27 19:39 25.76364 -17.09290 33999 ft 437 kts 219°
2026-04-27 19:40 25.71210 -17.12914 34000 ft 437 kts 219°
2026-04-27 19:40 25.66057 -17.16528 33999 ft 437 kts 219°
2026-04-27 19:41 25.60930 -17.20121 33999 ft 437 kts 219°
2026-04-27 19:41 25.55766 -17.23740 34000 ft 438 kts 219°
2026-04-27 19:42 25.50632 -17.27330 34000 ft 437 kts 219°
2026-04-27 19:42 25.45467 -17.30939 33999 ft 436 kts 218°
2026-04-27 19:43 25.40336 -17.34523 34000 ft 437 kts 218°
2026-04-27 19:43 25.35196 -17.38107 33999 ft 437 kts 218°
2026-04-27 19:44 25.30049 -17.41693 33999 ft 437 kts 218°
2026-04-27 19:44 25.24869 -17.45299 33999 ft 437 kts 218°
2026-04-27 19:45 25.19736 -17.48868 33999 ft 436 kts 218°
2026-04-27 19:45 25.14596 -17.52445 34000 ft 437 kts 218°
2026-04-27 19:46 25.09441 -17.56018 33999 ft 437 kts 218°
2026-04-27 19:46 25.04289 -17.59589 34000 ft 437 kts 218°
2026-04-27 19:47 24.99137 -17.63157 34000 ft 436 kts 218°
2026-04-27 19:47 24.94000 -17.66709 33999 ft 437 kts 217°
2026-04-27 19:48 24.88822 -17.70279 33999 ft 437 kts 217°
2026-04-27 19:48 24.83675 -17.73827 34000 ft 436 kts 217°
2026-04-27 19:49 24.78525 -17.77377 33999 ft 436 kts 217°
2026-04-27 19:49 24.73370 -17.80925 34000 ft 436 kts 217°
2026-04-27 19:50 24.68225 -17.84462 33999 ft 436 kts 217°
2026-04-27 19:50 24.63063 -17.88010 34000 ft 436 kts 217°
2026-04-27 19:51 24.57901 -17.91551 34000 ft 436 kts 217°
2026-04-27 19:51 24.52772 -17.95067 33999 ft 436 kts 217°
2026-04-27 19:52 24.47614 -17.98601 33999 ft 436 kts 217°
2026-04-27 19:52 24.25500 -18.13704 33992 ft 436 kts 216°
2026-04-27 19:53 23.28522 -18.79193 33997 ft 436 kts 217°
2026-04-27 19:53 23.23331 -18.82681 34020 ft 439 kts 217°
2026-04-27 19:54 23.18102 -18.86191 34019 ft 438 kts 217°
2026-04-27 19:54 23.12898 -18.89669 34020 ft 437 kts 217°
2026-04-27 19:55 23.07720 -18.93129 34020 ft 438 kts 217°
2026-04-27 19:55 23.02538 -18.96585 34020 ft 437 kts 217°
2026-04-27 19:56 22.97354 -19.00041 34020 ft 438 kts 217°
2026-04-27 19:56 22.92131 -19.03517 34020 ft 438 kts 217°
2026-04-27 19:57 22.86929 -19.06978 34020 ft 438 kts 218°
2026-04-27 19:57 22.81763 -19.10411 34020 ft 438 kts 218°
2026-04-27 19:58 22.76561 -19.13864 34020 ft 438 kts 218°
2026-04-27 19:58 22.71348 -19.17322 34020 ft 438 kts 218°
2026-04-27 19:59 22.66146 -19.20769 34020 ft 438 kts 218°
2026-04-27 19:59 22.60919 -19.24229 34020 ft 439 kts 218°
2026-04-27 20:00 22.55701 -19.27677 34020 ft 438 kts 218°
2026-04-27 20:00 22.50493 -19.31119 34020 ft 438 kts 218°
2026-04-27 20:01 22.45282 -19.34561 34020 ft 438 kts 218°
2026-04-27 20:01 22.40100 -19.37981 34020 ft 438 kts 218°
2026-04-27 20:02 22.34887 -19.41416 34019 ft 438 kts 219°
2026-04-27 20:02 22.29666 -19.44855 34020 ft 439 kts 219°
2026-04-27 20:03 22.24431 -19.48299 34020 ft 439 kts 219°
2026-04-27 20:03 22.19228 -19.51722 34020 ft 439 kts 219°
2026-04-27 20:04 22.14016 -19.55143 34020 ft 438 kts 219°
2026-04-27 20:04 22.09654 -19.58004 34020 ft 439 kts 219°
2026-04-27 20:05 22.03582 -19.61988 34020 ft 439 kts 219°
2026-04-27 20:05 21.98331 -19.65427 34020 ft 439 kts 219°
2026-04-27 20:06 21.93189 -19.68793 34020 ft 440 kts 219°
2026-04-27 20:06 21.87944 -19.72221 34020 ft 440 kts 219°
2026-04-27 20:07 21.82699 -19.75648 34020 ft 439 kts 219°
2026-04-27 20:07 21.77472 -19.79060 34020 ft 439 kts 219°
2026-04-27 20:08 21.72250 -19.82466 34020 ft 440 kts 219°
2026-04-27 20:08 21.67006 -19.85884 34020 ft 441 kts 219°
2026-04-27 20:09 21.61727 -19.89317 34020 ft 441 kts 219°
2026-04-27 20:09 21.56479 -19.92732 34020 ft 440 kts 219°
2026-04-27 20:10 21.51225 -19.96147 34020 ft 440 kts 219°
2026-04-27 20:10 21.46003 -19.99537 34020 ft 440 kts 219°
2026-04-27 20:11 21.40753 -20.02945 34020 ft 439 kts 219°
2026-04-27 20:11 21.35517 -20.06340 34020 ft 441 kts 219°
2026-04-27 20:12 21.31128 -20.09184 34020 ft 441 kts 219°
2026-04-27 20:12 21.24978 -20.13163 34020 ft 440 kts 219°
2026-04-27 20:13 21.19755 -20.16540 34020 ft 440 kts 220°
2026-04-27 20:13 21.14515 -20.19926 34020 ft 440 kts 220°
2026-04-27 20:14 21.09258 -20.23318 34020 ft 440 kts 220°
2026-04-27 20:14 21.04037 -20.26686 34020 ft 439 kts 220°
2026-04-27 20:15 20.98776 -20.30077 34020 ft 439 kts 220°
2026-04-27 20:15 20.93550 -20.33442 34020 ft 439 kts 220°
2026-04-27 20:16 20.88298 -20.36822 34020 ft 439 kts 220°
2026-04-27 20:16 20.83052 -20.40192 34020 ft 440 kts 220°
2026-04-27 20:17 20.77820 -20.43553 34020 ft 440 kts 220°
2026-04-27 20:17 20.73439 -20.46365 34020 ft 440 kts 220°
2026-04-27 20:18 20.67304 -20.50300 34020 ft 440 kts 220°
2026-04-27 20:18 20.62038 -20.53675 34020 ft 440 kts 220°
2026-04-27 20:19 20.56783 -20.57038 34020 ft 439 kts 220°
2026-04-27 20:19 20.51548 -20.60388 34019 ft 439 kts 220°
2026-04-27 20:20 20.46281 -20.63755 34020 ft 439 kts 220°
2026-04-27 20:20 20.41036 -20.67106 34020 ft 440 kts 220°
2026-04-27 20:21 20.35776 -20.70462 34020 ft 440 kts 220°
2026-04-27 20:21 20.30533 -20.73798 34020 ft 440 kts 220°
2026-04-27 20:22 20.25268 -20.77144 34020 ft 440 kts 220°
2026-04-27 20:22 20.20018 -20.80478 34020 ft 440 kts 220°
2026-04-27 20:23 20.14756 -20.83819 34020 ft 440 kts 220°
2026-04-27 20:23 20.09497 -20.87154 34020 ft 440 kts 220°
2026-04-27 20:24 20.04222 -20.90496 34020 ft 439 kts 220°
2026-04-27 20:24 19.98960 -20.93828 34019 ft 439 kts 220°
2026-04-27 20:25 19.93675 -20.97176 34020 ft 442 kts 219°
2026-04-27 20:25 19.88368 -21.00529 34020 ft 442 kts 219°
2026-04-27 20:26 19.83098 -21.03857 34020 ft 441 kts 219°
2026-04-27 20:26 19.77834 -21.07182 34020 ft 442 kts 219°
2026-04-27 20:27 19.72512 -21.10537 34020 ft 442 kts 219°
2026-04-27 20:27 19.67228 -21.13867 34020 ft 442 kts 219°
2026-04-27 20:28 19.61968 -21.17179 34020 ft 442 kts 219°
2026-04-27 20:28 19.57527 -21.19974 34020 ft 442 kts 219°
2026-04-27 20:29 19.51381 -21.23841 34020 ft 442 kts 219°
2026-04-27 20:29 19.46064 -21.27180 34020 ft 442 kts 219°
2026-04-27 20:30 19.40770 -21.30503 34020 ft 442 kts 219°
2026-04-27 20:30 19.35476 -21.33823 34019 ft 442 kts 219°
2026-04-27 20:31 19.30209 -21.37125 34020 ft 444 kts 219°
2026-04-27 20:31 19.24873 -21.40468 34020 ft 444 kts 219°
2026-04-27 20:32 19.19543 -21.43804 34019 ft 444 kts 219°
2026-04-27 20:32 19.14204 -21.47144 34020 ft 444 kts 219°
2026-04-27 20:33 19.08891 -21.50465 34020 ft 444 kts 219°
2026-04-27 20:33 19.03563 -21.53793 34020 ft 445 kts 219°
2026-04-27 20:34 18.98229 -21.57120 34020 ft 445 kts 219°
2026-04-27 20:34 18.92872 -21.60462 34020 ft 445 kts 219°
2026-04-27 20:35 18.87526 -21.63793 34020 ft 445 kts 218°
2026-04-27 20:35 18.82195 -21.67111 34020 ft 446 kts 218°
2026-04-27 20:36 18.76837 -21.70447 34020 ft 447 kts 218°
2026-04-27 20:36 18.71451 -21.73789 34019 ft 446 kts 218°
2026-04-27 20:37 18.66124 -21.77103 34020 ft 446 kts 218°
2026-04-27 20:37 18.60750 -21.80435 34020 ft 447 kts 218°
2026-04-27 20:38 18.55409 -21.83839 34020 ft 446 kts 219°
2026-04-27 20:38 18.50040 -21.87178 34020 ft 449 kts 216°
2026-04-27 20:39 18.44602 -21.90468 34020 ft 448 kts 217°
2026-04-27 20:39 18.39239 -21.93789 34020 ft 449 kts 217°
2026-04-27 20:40 17.98496 -22.18799 34018 ft 449 kts 217°
2026-04-27 20:40 17.93227 -22.22076 34017 ft 425 kts 218°
2026-04-27 20:41 17.90735 -22.23618 33687 ft 412 kts 218°
2026-04-27 20:41 17.88296 -22.25124 33222 ft 400 kts 218°
2026-04-27 20:41 17.85907 -22.26605 32708 ft 397 kts 218°
2026-04-27 20:41 17.83532 -22.28079 32210 ft 394 kts 218°
2026-04-27 20:42 17.81191 -22.29530 31711 ft 392 kts 218°
2026-04-27 20:42 17.78831 -22.30980 31211 ft 390 kts 217°
2026-04-27 20:42 17.76506 -22.32398 30719 ft 386 kts 217°
2026-04-27 20:42 17.74207 -22.33807 30231 ft 383 kts 217°
2026-04-27 20:43 17.71911 -22.35221 29742 ft 379 kts 217°
2026-04-27 20:43 17.69646 -22.36616 29260 ft 376 kts 217°
2026-04-27 20:43 17.67381 -22.38012 28777 ft 374 kts 217°
2026-04-27 20:43 17.65146 -22.39391 28299 ft 371 kts 217°
2026-04-27 20:44 17.62947 -22.40743 27828 ft 369 kts 216°
2026-04-27 20:44 17.60718 -22.42113 27350 ft 367 kts 216°
2026-04-27 20:44 17.58540 -22.43449 26881 ft 364 kts 216°
2026-04-27 20:44 17.56334 -22.44798 26408 ft 361 kts 216°
2026-04-27 20:45 17.54181 -22.46114 25947 ft 358 kts 216°
2026-04-27 20:45 17.52007 -22.47443 25481 ft 356 kts 215°
2026-04-27 20:45 17.49873 -22.48747 25023 ft 354 kts 215°
2026-04-27 20:45 17.47756 -22.50041 24567 ft 352 kts 214°
2026-04-27 20:46 17.45635 -22.51340 24110 ft 350 kts 214°
2026-04-27 20:46 17.43528 -22.52626 23656 ft 348 kts 214°
2026-04-27 20:46 17.41439 -22.53894 23207 ft 345 kts 214°
2026-04-27 20:46 17.39390 -22.55137 22764 ft 342 kts 214°
2026-04-27 20:47 17.37314 -22.56403 22318 ft 340 kts 214°
2026-04-27 20:47 17.35284 -22.57643 21881 ft 338 kts 214°
2026-04-27 20:47 17.33262 -22.58876 21444 ft 336 kts 214°
2026-04-27 20:47 17.31266 -22.60092 21014 ft 333 kts 214°
2026-04-27 20:48 17.29248 -22.61321 20577 ft 331 kts 214°
2026-04-27 20:48 17.27913 -22.62136 20288 ft 329 kts 214°
2026-04-27 20:48 17.25286 -22.63738 19720 ft 327 kts 214°
2026-04-27 20:48 17.23314 -22.64939 19293 ft 325 kts 214°
2026-04-27 20:49 17.21365 -22.66127 18871 ft 323 kts 213°
2026-04-27 20:49 17.19436 -22.67301 18453 ft 321 kts 213°
2026-04-27 20:49 17.17501 -22.68480 18034 ft 319 kts 213°
2026-04-27 20:49 17.15574 -22.69654 17617 ft 316 kts 213°
2026-04-27 20:50 17.13681 -22.70804 17206 ft 314 kts 213°
2026-04-27 20:50 17.11817 -22.71939 16802 ft 311 kts 213°
2026-04-27 20:50 17.09943 -22.73080 16396 ft 309 kts 213°
2026-04-27 20:50 17.08093 -22.74206 15994 ft 306 kts 213°
2026-04-27 20:51 17.06256 -22.75321 15595 ft 303 kts 213°
2026-04-27 20:51 17.04429 -22.76431 15199 ft 301 kts 213°
2026-04-27 20:51 17.02636 -22.77524 14808 ft 298 kts 213°
2026-04-27 20:51 17.00840 -22.78618 14418 ft 296 kts 213°
2026-04-27 20:52 16.99063 -22.79696 14032 ft 294 kts 213°
2026-04-27 20:52 16.97294 -22.80767 13651 ft 291 kts 213°
2026-04-27 20:52 16.95553 -22.81825 13271 ft 288 kts 213°
2026-04-27 20:52 16.93830 -22.82873 12896 ft 286 kts 213°
2026-04-27 20:53 16.92108 -22.83920 12521 ft 284 kts 213°
2026-04-27 20:53 16.90404 -22.84954 12164 ft 281 kts 213°
2026-04-27 20:53 16.88723 -22.85973 11807 ft 280 kts 213°
2026-04-27 20:53 16.87040 -22.86995 11442 ft 280 kts 213°
2026-04-27 20:54 16.83642 -22.89058 10700 ft 281 kts 212°
2026-04-27 20:54 16.81966 -22.90073 10334 ft 281 kts 212°
2026-04-27 20:54 16.80274 -22.91096 10026 ft 278 kts 212°
2026-04-27 20:55 16.78586 -22.92119 9760 ft 282 kts 212°
2026-04-27 20:55 16.76896 -22.93146 9377 ft 282 kts 212°
2026-04-27 20:55 16.75210 -22.94166 9016 ft 280 kts 212°
2026-04-27 20:55 16.73501 -22.95139 8720 ft 279 kts 205°
2026-04-27 20:56 16.71637 -22.95802 8411 ft 282 kts 199°
2026-04-27 20:56 16.69759 -22.96416 8028 ft 283 kts 200°
2026-04-27 20:56 16.67907 -22.97050 7644 ft 281 kts 200°
2026-04-27 20:56 16.66030 -22.97684 7255 ft 280 kts 199°
2026-04-27 20:57 16.64187 -22.98303 6874 ft 279 kts 200°
2026-04-27 20:57 16.62344 -22.98929 6516 ft 278 kts 199°
2026-04-27 20:57 16.60514 -22.99548 6309 ft 275 kts 199°
2026-04-27 20:57 16.58669 -23.00169 6200 ft 276 kts 199°
2026-04-27 20:58 16.56830 -23.00791 6205 ft 277 kts 199°
2026-04-27 20:58 16.54987 -23.01415 6203 ft 278 kts 199°
2026-04-27 20:58 16.53142 -23.01943 6131 ft 271 kts 187°
2026-04-27 20:58 16.51326 -23.01673 5924 ft 256 kts 153°
2026-04-27 20:59 16.50043 -23.00509 5699 ft 242 kts 125°
2026-04-27 20:59 16.49107 -22.99087 5447 ft 233 kts 121°
2026-04-27 20:59 16.48555 -22.97588 5214 ft 213 kts 93°
2026-04-27 20:59 16.48643 -22.96115 4973 ft 193 kts 78°
2026-04-27 21:00 16.49081 -22.94846 4600 ft 179 kts 46°
2026-04-27 21:00 16.50112 -22.94290 4414 ft 170 kts
2026-04-27 21:00 16.51313 -22.94266 4199 ft 172 kts 357°
2026-04-27 21:00 16.52499 -22.94334 4067 ft 169 kts 358°
2026-04-27 21:01 16.53688 -22.94443 3930 ft 173 kts 352°
2026-04-27 21:01 16.54891 -22.94610 3669 ft 170 kts 355°
2026-04-27 21:01 16.56047 -22.94739 3447 ft 168 kts 359°
2026-04-27 21:01 16.57209 -22.94773 3216 ft 166 kts
2026-04-27 21:02 16.58361 -22.94788 2986 ft 164 kts
2026-04-27 21:02 16.59500 -22.94797 2757 ft 163 kts
2026-04-27 21:02 16.60646 -22.94805 2530 ft 164 kts
2026-04-27 21:02 16.61773 -22.94814 2290 ft 155 kts
2026-04-27 21:03 16.62798 -22.94821 2106 ft 141 kts
2026-04-27 21:03 16.63796 -22.94827 2013 ft 145 kts
2026-04-27 21:03 16.64818 -22.94835 1713 ft 145 kts
2026-04-27 21:03 16.65816 -22.94841 1506 ft 143 kts
2026-04-27 21:04 16.66859 -22.94847 1326 ft 156 kts
2026-04-27 21:04 16.67935 -22.94855 1083 ft 151 kts
2026-04-27 21:04 16.68970 -22.94862 886 ft 145 kts
2026-04-27 21:04 16.69978 -22.94871 697 ft 145 kts
2026-04-27 21:05 16.70997 -22.94873 488 ft 146 kts
2026-04-27 21:05 16.72019 -22.94879 279 ft 146 kts
2026-04-27 21:05 16.73006 -22.94891 193 ft 128 kts
2026-04-27 21:05 16.73634 -22.94885 193 ft 52 kts
2026-04-27 21:06 16.73935 -22.94890 191 ft 39 kts 359°
2026-04-27 21:06 16.74176 -22.94892 187 ft 29 kts 13°
2026-04-27 21:06 16.74294 -22.94756 186 ft 20 kts 67°
2026-04-27 21:06 16.74227 -22.94697 186 ft 13 kts 177°
2026-04-27 21:07 16.74114 -22.94693 186 ft 19 kts 178°
2026-04-27 21:07 16.73940 -22.94696 187 ft 30 kts 180°
2026-04-27 21:07 16.73704 -22.94694 189 ft 34 kts 179°
2026-04-27 21:07 16.73596 -22.94617 190 ft 15 kts 140°
2026-04-27 21:08 16.73501 -22.94594 190 ft 13 kts 178°
2026-04-27 21:08 16.73432 -22.94566 190 ft 9 kts 115°
2026-04-27 21:08 16.73427 -22.94512 190 ft 3 kts 90°
2026-04-27 21:08 16.73427 -22.94496 190 ft 0 kts 90°